Terminal Aerodrome Forecast
Issued by NWS

Home | Current Version | Previous Version | Text Only | Print | Product List | Glossary On
Versions: 1 2 3 4 5 6 7 8 9 10 11 12 13 14 15 16 17
411
FTUS43 KIND 280520
TAFBMG
TAF
KBMG 280520Z 2806/2906 00000KT P6SM SCT250
      TEMPO 2806/2808 4SM BR
     FM280800 00000KT 1 1/2SM BR SCT250
      TEMPO 2808/2812 3/4SM BR
     FM281400 11005KT P6SM SCT025 BKN250
     FM281800 11005KT P6SM VCTS SCT030CB BKN250
     FM290200 04004KT P6SM BKN250
      AMD LTD TO CLD VIS AND WIND TIL 281300=

USA.gov is the U.S. government's official web portal to all federal, state and local government web resources and services.